Location: Nora Junction
(43.1400°N, 93.0163°W)
Time: 23:34:42
(UTC+00:00)

Tsikada Rocket - Pass Details

Date: 18 November 2025
Orbit: 957 x 1008 km, 82.9° (Epoch: 14 December)

Event Time Altitude Azimuth Distance (km) Brightness Sun altitude
Rises 12:31:39 0° 195° (SSW) 3,688 7.1 -7.1°
Reaches altitude 10° 12:34:11 10° 199° (SSW) 2,750 6.4 -6.7°
Maximum altitude 12:40:27 64° 280° (W) 1,101 4.1 -5.6°
Drops below altitude 10° 12:46:50 10° 2° (N) 2,792 6.2 -4.5°
Sets 12:49:25 0° 6° (N) 3,748 6.9 -4.1°
